[[{"header":{"parameterUnit":"m.s-1","parameterCategory":1,"la1":30.2991,"la2":30.254,"lo1":-89.0895,"lo2":-89.0444,"dy":0.0017,"dx":0.0017,"nx":28,"ny":28,"refTime":"2023-10-26T21:00:00:Z","depth":0,"parameterNumber":2,"parameterNumberName":"U-component_of_WINDS"},"data":[0,0,0,0,0,0,0,0,0,0,0,0,0,0,0,0,0,0,0,0,0,0,0,0,0,0,0,0,0,0,0,0,0,0,0,0,0,0,0,0,0,0,0,0,0,0,0,0,0,0,0,0,0,0,0,0,0,0,-2.4127,-2.4128,0,-2.4185,-2.4185,-2.4186,-2.4133,-2.4131,-2.4129,-2.4127,-2.4186,-2.4189,-2.4193,0,0,0,0,0,0,0,0,0,0,0,0,0,-2.3974,-2.3977,-2.4127,-2.4128,-2.4129,-2.4184,-2.4185,-2.4186,-2.4134,-2.4131,-2.4128,-2.4126,-2.4185,-2.4189,-2.4193,0,0,0,0,0,0,0,0,0,0,0,0,0,-2.4037,-2.3978,-2.4127,-2.4109,-2.4108,-2.4184,-2.4185,-2.4186,-2.4134,-2.4131,-2.4128,-2.4125,-2.4183,-2.4188,-2.4194,-2.429,0,0,-2.421,-2.4212,0,0,0,0,0,0,0,0,-2.4033,-2.4043,-2.4111,-2.4111,-2.411,-2.4148,-2.4153,-2.4221,-2.4135,-2.4124,-2.4127,-2.4123,-2.4176,-2.4182,-2.4199,-2.4293,-2.4295,-2.421,-2.4214,-2.4216,-2.4217,0,0,0,0,0,0,0,-2.4029,-2.404,-2.415,-2.4112,-2.4111,-2.4099,-2.4104,-2.4165,-2.4167,-2.4125,-2.4121,-2.4129,-2.4175,-2.4194,-2.42,-2.4296,-2.421,-2.4215,-2.4218,-2.422,-2.4474,-2.4477,0,0,0,0,0,0,-2.4027,-2.4037,-2.4148,-2.4152,-2.4063,-2.4104,-2.411,-2.4139,-2.4167,-2.4168,-2.4132,-2.4126,-2.4187,-2.4194,-2.4202,-2.4318,-2.4216,-2.4221,-2.4224,-2.447,-2.4475,-2.4479,0,0,0,0,0,0,-2.4024,-2.4037,-2.4146,-2.4093,-2.4106,-2.411,-2.4143,-2.4142,-2.4161,-2.4171,-2.4172,-2.4151,-2.4185,-2.4195,-2.4269,-2.4319,-2.4223,-2.4228,-2.4466,-2.4472,-2.4477,-2.4549,0,0,0,0,0,0,-2.4019,-2.4036,-2.4072,-2.4094,-2.4109,-2.4211,-2.4146,-2.4145,-2.4171,-2.4164,-2.419,-2.4191,-2.4183,-2.4261,-2.4274,-2.4325,-2.4232,-2.4462,-2.4469,-2.4475,-2.4542,-2.4557,-2.4569,0,0,0,0,0,-2.4014,-2.409,-2.4074,-2.4088,-2.4154,-2.4214,-2.4223,-2.4212,-2.4175,-2.4212,-2.4219,-2.419,-2.4312,-2.427,-2.4284,-2.4336,-2.4459,-2.4467,-2.4474,-2.4537,-2.4554,-2.4568,0,0,0,0,0,0,-2.4073,-2.4093,-2.4075,-2.4161,-2.4186,-2.4205,-2.4251,-2.423,-2.4267,-2.4259,-2.4244,-2.4251,-2.4329,-2.434,-2.4293,-2.4432,-2.4379,-2.4391,-2.4422,-2.4438,-2.4451,-2.4446,-2.4237,0,0,0,0,0,-2.4096,-2.4143,-2.4158,-2.4232,-2.4246,-2.4247,-2.4272,-2.4262,-2.4288,-2.4298,-2.431,-2.4337,-2.4381,-2.441,-2.4451,-2.4545,-2.455,-2.4588,-2.4601,-2.4612,-2.4621,-2.4672,-2.469,-2.4505,-2.4505,-2.4505,0,0,-2.4144,-2.4161,-2.4191,-2.4244,-2.4263,-2.4312,-2.4256,-2.431,-2.4346,-2.4306,-2.4377,-2.4388,-2.4416,-2.4501,-2.4538,-2.4512,-2.4674,-2.4622,-2.463,-2.4634,-2.4682,-2.47,-2.4715,-2.451,-2.4509,-2.4508,0,0,-2.4256,-2.4274,-2.4338,-2.4358,-2.4387,-2.4388,-2.4403,-2.4426,-2.4432,-2.4503,-2.4474,-2.4518,-2.4594,-2.4616,-2.4638,-2.4762,-2.4737,-2.4776,-2.4843,-2.4893,-2.4908,-2.4921,-2.4965,-2.4981,-2.4785,-2.4786,-2.4786,0,-2.4312,-2.4385,-2.4373,-2.443,-2.4455,-2.4422,-2.4487,-2.4508,-2.4549,-2.4567,-2.4537,-2.4634,-2.4651,-2.474,-2.4771,-2.4789,-2.4807,-2.4772,-2.4907,-2.4919,-2.4931,-2.4974,-2.499,-2.479,-2.479,-2.4789,-2.4789,0,-2.4452,-2.4504,-2.4552,-2.4593,-2.4624,-2.4685,-2.4683,-2.4715,-2.4704,-2.4708,-2.4782,-2.4801,-2.4846,-2.4867,-2.4856,-2.4956,-2.4939,-2.4909,-2.4855,-2.4954,-2.4993,-2.5009,-2.4796,-2.4795,-2.4794,-2.4792,0,0,-2.4601,-2.4637,-2.4655,-2.4674,-2.4705,-2.4745,-2.4805,-2.485,-2.4878,-2.4909,-2.4959,-2.5026,-2.4999,-2.5023,-2.5014,-2.5058,-2.5156,-2.5022,-2.5023,-2.5047,-2.5269,-2.5291,-2.531,-2.5141,-2.5144,-2.5146,-2.5267,0,-2.4714,-2.4818,-2.4811,-2.491,-2.4957,-2.4928,-2.4981,-2.5007,-2.5013,-2.5055,-2.5062,-2.5109,-2.5069,-2.5084,-2.5127,-2.5135,-2.5201,-2.5127,-2.5188,-2.519,-2.5181,-2.5331,-2.5354,-2.5467,-2.5282,-2.5285,-2.5287,0,-2.4859,-2.4896,-2.5,-2.5025,-2.5045,-2.5093,-2.5134,-2.5174,-2.5204,-2.5205,-2.5234,-2.5218,-2.528,-2.5227,-2.5312,-2.5262,-2.5287,-2.5296,-2.53,-2.5304,-2.5244,-2.5339,-2.5502,-2.5519,-2.5311,-2.5309,-2.5307,0,-2.4958,-2.5033,-2.5105,-2.5122,-2.5154,-2.5188,-2.5203,-2.5229,-2.5257,-2.5294,-2.5312,-2.5356,-2.5379,-2.5414,-2.5411,-2.5372,-2.5499,-2.5444,-2.5502,-2.5502,-2.5529,-2.5527,-2.5697,-2.5546,-2.5546,-2.5546,-2.5545,0,-2.5084,-2.5149,-2.5149,-2.5193,-2.5266,-2.5257,-2.5329,-2.534,-2.5364,-2.5411,-2.5389,-2.5433,-2.5427,-2.5472,-2.5471,-2.5542,-2.5553,-2.5557,-2.5555,-2.5558,-2.5558,-2.5573,-2.5565,-2.555,-2.5549,-2.5548,-2.5547,0,-2.5205,-2.5208,-2.5285,-2.531,-2.5317,-2.537,-2.5391,-2.5433,-2.5439,-2.5498,-2.5512,-2.552,-2.5572,-2.5573,-2.5633,-2.5632,-2.5719,-2.571,-2.571,-2.5707,-2.5765,-2.5759,-2.5951,-2.5976,-2.5809,-2.5811,-2.5812,0,-2.5285,-2.5334,-2.5365,-2.5395,-2.5412,-2.5461,-2.549,-2.5484,-2.5516,-2.5554,-2.5592,-2.5642,-2.5682,-2.5766,-2.5778,-2.5824,-2.5815,-2.5879,-2.5821,-2.5823,-2.5816,-2.5813,-2.5818,-2.589,-2.5892,-2.5893,-2.5894,0,-2.5427,-2.5427,-2.547,-2.5514,-2.5549,-2.5584,-2.5615,-2.5641,-2.564,-2.5677,-2.573,-2.5761,-2.5822,-2.5872,-2.5917,-2.5933,-2.5914,-2.5913,-2.5928,-2.5931,-2.5929,-2.5931,-2.574,-2.5908,-2.5906,-2.5905,-2.5905,-2.5904,-2.553,-2.5573,-2.5602,-2.5651,-2.5675,-2.5706,-2.5747,-2.5759,-2.5803,-2.5852,-2.5847,-2.5906,-2.5936,-2.5995,-2.6015,-2.6062,-2.604,-2.6063,-2.6068,-2.6074,-2.608,-2.5923,-2.607,-2.607,-2.607,-2.6069,-2.6069,0,-2.5671,-2.5689,-2.5734,-2.578,-2.5819,-2.5798,-2.5833,-2.5867,-2.592,-2.5949,-2.5989,-2.6052,-2.6101,-2.6118,-2.6166,-2.62,-2.6193,-2.6213,-2.621,-2.6214,-2.6097,-2.6079,-2.6219,-2.6219,-2.6219,-2.6219,-2.6218,-2.6218,-2.5749,-2.5821,-2.5824,-2.5909,-2.5926,-2.5984,-2.6006,-2.6035,-2.6059,-2.6129,-2.617,-2.6181,-2.6206,-2.6256,-2.6301,-2.6305,-2.6324,-2.6348,-2.6348,-2.6238,-2.6223,-2.6208,-2.6191,-2.6352,-2.6352,-2.6461,-2.6462,-2.6463]},{"header":{"parameterUnit":"m.s-1","parameterCategory":1,"la1":30.2991,"la2":30.254,"lo1":-89.0895,"lo2":-89.0444,"dy":0.0017,"dx":0.0017,"nx":28,"ny":28,"refTime":"2023-10-26T21:00:00:Z","depth":0,"parameterNumber":3,"parameterNumberName":"V-component_of_WINDS"},"data":[0,0,0,0,0,0,0,0,0,0,0,0,0,0,0,0,0,0,0,0,0,0,0,0,0,0,0,0,0,0,0,0,0,0,0,0,0,0,0,0,0,0,0,0,0,0,0,0,0,0,0,0,0,0,0,0,0,0,0.7178,0.7179,0,0.7253,0.7253,0.7254,0.7296,0.7296,0.7296,0.7297,0.737,0.7372,0.7374,0,0,0,0,0,0,0,0,0,0,0,0,0,0.7071,0.7073,0.7178,0.7179,0.718,0.7252,0.7253,0.7254,0.7296,0.7296,0.7296,0.7297,0.7369,0.7372,0.7374,0,0,0,0,0,0,0,0,0,0,0,0,0,0.7128,0.7073,0.7178,0.7209,0.7213,0.7252,0.7253,0.7255,0.7296,0.7296,0.7296,0.7297,0.7369,0.7371,0.7374,0.7387,0,0,0.7382,0.7384,0,0,0,0,0,0,0,0,0.7125,0.7132,0.7204,0.7207,0.7211,0.7265,0.7243,0.7299,0.7296,0.7264,0.7297,0.7297,0.7335,0.734,0.7354,0.739,0.7393,0.7383,0.7384,0.7386,0.7386,0,0,0,0,0,0,0,0.7121,0.7129,0.7207,0.7205,0.7209,0.722,0.7228,0.7254,0.7297,0.7267,0.727,0.7279,0.7337,0.7351,0.7356,0.7394,0.7383,0.7385,0.7387,0.7388,0.7449,0.7448,0,0,0,0,0,0,0.7112,0.7126,0.7205,0.721,0.7168,0.7221,0.7231,0.7248,0.7297,0.7305,0.7279,0.728,0.7346,0.7353,0.7359,0.7379,0.7386,0.7388,0.739,0.7449,0.7448,0.7448,0,0,0,0,0,0,0.711,0.7119,0.7202,0.7169,0.718,0.7223,0.7242,0.7249,0.7263,0.7306,0.7314,0.7285,0.7347,0.7355,0.738,0.7382,0.7389,0.7392,0.7449,0.7449,0.7448,0.7418,0,0,0,0,0,0,0.7106,0.7118,0.7123,0.7168,0.7182,0.7222,0.7242,0.725,0.7268,0.7271,0.7314,0.7321,0.7347,0.7376,0.7383,0.7386,0.7394,0.7449,0.7449,0.7448,0.7419,0.7416,0.7415,0,0,0,0,0,0.7103,0.711,0.7123,0.7132,0.7189,0.7222,0.723,0.7261,0.7268,0.7274,0.7302,0.732,0.7381,0.7378,0.7387,0.739,0.7449,0.7449,0.7448,0.7419,0.7417,0.7415,0,0,0,0,0,0,0.7061,0.7116,0.7131,0.7153,0.7183,0.7229,0.7237,0.7256,0.7284,0.7285,0.7322,0.7331,0.7354,0.7375,0.7371,0.7407,0.7417,0.7418,0.7392,0.739,0.7388,0.7382,0.7396,0,0,0,0,0,0.7055,0.7078,0.7124,0.714,0.7154,0.7193,0.7209,0.723,0.7262,0.7274,0.7304,0.7334,0.736,0.7376,0.7402,0.7422,0.7433,0.7429,0.7427,0.7425,0.7426,0.7441,0.744,0.7448,0.7448,0.7448,0,0,0.7041,0.7074,0.7086,0.7132,0.7158,0.7181,0.7203,0.7226,0.7244,0.7278,0.7304,0.7328,0.7363,0.7387,0.7399,0.7405,0.7426,0.7425,0.7423,0.7425,0.744,0.7439,0.7439,0.7448,0.7448,0.7448,0,0,0.7029,0.7056,0.7073,0.7099,0.7138,0.7165,0.7169,0.7213,0.723,0.7258,0.7285,0.7307,0.735,0.7376,0.7394,0.7396,0.7414,0.7403,0.7392,0.7406,0.7405,0.7405,0.7407,0.7407,0.7404,0.7404,0.7404,0,0.7007,0.7043,0.7078,0.7101,0.7121,0.7155,0.7173,0.7197,0.7242,0.7255,0.7262,0.732,0.7346,0.7377,0.7378,0.7391,0.7398,0.7398,0.7403,0.7403,0.7403,0.7405,0.7405,0.7402,0.7402,0.7402,0.7403,0,0.7015,0.704,0.7049,0.7094,0.7116,0.7135,0.7174,0.7192,0.7212,0.7239,0.7268,0.7301,0.7336,0.7345,0.7364,0.738,0.7383,0.7396,0.7407,0.74,0.7403,0.7404,0.74,0.7401,0.7401,0.7401,0,0,0.6975,0.7043,0.7046,0.7068,0.7116,0.7136,0.7158,0.7194,0.7209,0.724,0.726,0.7298,0.7312,0.7333,0.7356,0.7368,0.7369,0.738,0.7381,0.7377,0.7391,0.7381,0.7381,0.7382,0.7383,0.7383,0.7388,0,0.697,0.7013,0.7047,0.7077,0.7102,0.7136,0.7156,0.7188,0.7214,0.7239,0.7267,0.7294,0.7309,0.7322,0.7336,0.7366,0.7372,0.7366,0.7402,0.7403,0.7392,0.7382,0.7371,0.7374,0.7389,0.7389,0.7389,0,0.6969,0.7001,0.7034,0.7083,0.7094,0.7111,0.7149,0.7172,0.7209,0.7228,0.7253,0.7278,0.7305,0.7314,0.7351,0.7347,0.7364,0.7381,0.7382,0.7386,0.7395,0.7386,0.7376,0.7376,0.7391,0.7391,0.7391,0,0.6938,0.699,0.7017,0.7035,0.7091,0.7103,0.7127,0.7165,0.7186,0.7218,0.7232,0.7267,0.7286,0.7312,0.7346,0.735,0.7381,0.7393,0.7397,0.7396,0.7401,0.74,0.7393,0.7412,0.7412,0.7412,0.7412,0,0.6928,0.6947,0.7004,0.702,0.7044,0.7084,0.7105,0.7132,0.7167,0.7189,0.7222,0.7242,0.7286,0.7313,0.734,0.7368,0.7375,0.7391,0.7398,0.7388,0.7386,0.7399,0.74,0.7412,0.7412,0.7412,0.7412,0,0.6897,0.6936,0.6968,0.702,0.7034,0.7049,0.7094,0.7112,0.7141,0.717,0.7179,0.7224,0.7258,0.7295,0.7339,0.7358,0.7384,0.7394,0.7372,0.7376,0.7379,0.7378,0.7379,0.7382,0.7398,0.7398,0.7398,0,0.6888,0.6904,0.6959,0.6978,0.7002,0.703,0.7053,0.7093,0.7115,0.7161,0.7174,0.721,0.7241,0.7292,0.7329,0.7365,0.7376,0.7374,0.7381,0.7372,0.7377,0.7375,0.7378,0.7371,0.7371,0.7371,0.737,0,0.6868,0.6888,0.6919,0.6957,0.6983,0.7015,0.7048,0.7062,0.7109,0.7132,0.7168,0.7192,0.724,0.7276,0.7316,0.7341,0.7364,0.7369,0.7372,0.7361,0.7348,0.7357,0.7366,0.7368,0.7368,0.7368,0.7368,0.7368,0.6848,0.6865,0.6908,0.6942,0.6972,0.7003,0.7024,0.7057,0.7088,0.713,0.7153,0.7188,0.7229,0.7286,0.7311,0.734,0.7347,0.7351,0.7352,0.7352,0.735,0.7344,0.7347,0.7347,0.7347,0.7347,0.7348,0,0.6831,0.6861,0.6893,0.694,0.6967,0.6989,0.7028,0.7049,0.708,0.7116,0.7148,0.719,0.7226,0.7267,0.7306,0.7321,0.7333,0.733,0.7329,0.7335,0.7341,0.7335,0.732,0.732,0.732,0.732,0.732,0.732,0.6825,0.6856,0.6881,0.6927,0.6957,0.6994,0.7014,0.7044,0.7073,0.7119,0.715,0.7178,0.7217,0.7259,0.7294,0.7305,0.7318,0.7312,0.7327,0.7332,0.7334,0.7336,0.733,0.7315,0.7315,0.7318,0.7318,0.7318]}]]